www.pogodaiklimat.ru

Погода и климат >> Архив погоды >> Россия >> Якутия >> Верхоянск


АРХИВ ПОГОДЫ в Верхоянске

Время (UTC), дата Ветер
(напр.,м/с)
 
Видим.   Явления Облачность Т
(С)
Тd
(С)
f
(%)
Тe
(С)
Тes
(С)
Комфортность P
(гПа)
Po
(гПа)
Тmin
(С)
Tmax
(С)
R
(мм)
R24
(мм)
S
(см)
06 17.08 В 2 50 км 10/0
[Ac As]
+12.2 +6.3 67 +11 +13 холодно 1015.8 999.3
09 17.08 В 2 50 км 10/0
[Ac trans Cs]
+12.6 +6.3 65 +12 +13 по сезону 1014.4 997.9 +12.6
12 17.08 штиль 0 50 км 9/4 1000 м
[Sc Ac trans]
+10.3 +7.4 82 +10 +10 по сезону 1014.3 997.6
15 17.08 штиль 0 20 км 9/4 1000 м
[Sc Ac trans]
+9.0 +6.6 85 +8 +8 по сезону 1013.6 997.0
18 17.08 штиль 0 50 км 8/3 1000 м
[Sc Ac trans]
+8.5 +6.3 86 +8 +8 тепло 1013.7 997.0
21 17.08 штиль 0 50 км 1/0
[Ci fib]
+4.6 +3.4 92 +3 +4 прохладно 1013.9 997.0 +4.0
00 18.08 Ю 1 50 км {туман} 1/0
[Ci fib]
+10.2 +7.3 82 +10 +15 по сезону 1013.8 997.2
03 18.08 Ю 1 50 км 3/1 1500 м
[Cu hum Ci fib]
+16.4 +7.0 54 +17 +25 тепло 1012.0 995.8
06 18.08 В 2 50 км 8/3 1000 м
[Sc Ci]
+18.2 +5.6 44 +19 +22 тепло 1010.7 994.6
09 18.08 СВ 1 50 км 8/3 1000 м
[Sc Ac trans Ci]
+17.8 +6.6 48 +19 +19 тепло 1010.2 994.1 +19.2
12 18.08 С 2 50 км 10/3 1000 м
[Cb cap Cc]
+13.3 +6.5 63 +13 +13 тепло 1010.0 993.6
15 18.08 штиль 0 20 км 8/1 1000 м
[Cb cap Ac trans]
+8.7 +5.7 81 +8 +8 по сезону 1009.8 993.1
18 18.08 штиль 0 50 км 9/4 1000 м
[Sc Ac trans Cs]
+5.5 +4.1 91 +4 +4 по сезону 1009.5 992.7
21 18.08 штиль 0 50 км 9/9 1440 м
[Sc]
+8.0 +6.5 90 +7 +7 по сезону 1008.7 992.1 +5.4
00 19.08 СВ 1 50 км 8/0
[Ac trans Ci fib]
+13.6 +7.1 65 +14 +17 тепло 1008.0 991.7
03 19.08 Ю 1 50 км 9/1 1000 м
[Cb cap Ac trans Ci fib]
+18.2 +5.0 42 +19 +24 тепло 1006.4 990.4
06 19.08 В 1 50 км 8/3 1000 м
[Cb cap Ac trans Ci fib]
+18.6 +5.6 42 +20 +22 тепло 1005.7 989.7
09 19.08 штиль 0 50 км 6/1 1000 м
[Sc Ac trans Ci fib]
+18.8 +4.2 38 +19 +20 тепло 1005.5 989.5 +20.5
12 19.08 СВ 2 50 км 4/0
[Ac trans Ci fib]
+11.4 +8.2 81 +10 +10 по сезону 1006.4 990.0
15 19.08 З 1 20 км 9/4 1000 м
[Sc Ac trans]
+10.0 +6.9 81 +10 +10 тепло 1007.0 990.5
18 19.08 СВ 3 50 км 10/5 1000 м
[Cb cap Ac trans]
+11.8 +8.2 79 +10 +10 тепло 1008.5 992.1
21 19.08 С 3 20 км слабый дождь 10/1 1000 м
[Cb cap As op]
+9.0 +6.0 81 +7 +7 по сезону 1011.5 994.9 +8.9 1
00 20.08 С 2 50 км {ливн. осадки} 5/1 1000 м
[Cb cap Ac trans]
+9.1 +3.8 69 +8 +10 по сезону 1012.5 995.9 +8.1
03 20.08 С 3 50 км 1/1 1000 м
[Cu hum]
+13.0 +3.7 53 +12 +17 по сезону 1012.7 996.3
06 20.08 С 2 50 км 3/3 1000 м
[Cu med, cong]
+14.2 +3.4 48 +14 +17 по сезону 1012.3 996.0
09 20.08 СВ 2 50 км ясно +14.7 +4.6 51 +15 +15 тепло 1012.8 996.5 +15.6 0.3
12 20.08 штиль 0 50 км ясно +8.5 +3.7 72 +8 +8 по сезону 1014.5 997.7
15 20.08 штиль 0 20 км 6/0
[Ac trans]
+3.5 +1.7 88 +2 +2 прохладно 1015.5 998.5
18 20.08 штиль 0 50 км 4/0
[Ac trans]
+1.2 +0.7 96 -0 -0 прохладно 1015.9 998.7
21 20.08 штиль 0 500 м туман 3/0
[Ac trans]
+0.9 +0.9 100 -1 0 холодно 1016.7 999.4 -1.2
00 21.08 штиль 0 50 км {туман} ясно +8.6 +3.3 69 +8 +14 по сезону 1015.5 998.7
03 21.08 ЮЗ 1 50 км ясно +16.2 +3.1 41 +17 +25 тепло 1013.2 997.0
06 21.08 ЮВ 3 50 км 1/0
[Ci fib]
+18.2 +1.6 33 +18 +22 тепло 1011.0 994.9
09 21.08 ЮВ 1 50 км 8/0
[Cs]
+18.3 +2.1 34 +20 +20 тепло 1009.8 993.7 +18.6
12 21.08 СВ 2 50 км 8/0
[Ci fib]
+11.5 +4.5 62 +11 +11 по сезону 1010.6 994.1
15 21.08 штиль 0 20 км 6/0
[Ci fib]
+4.1 +2.1 87 +3 +3 прохладно 1010.7 993.8
18 21.08 СВ 1 50 км 10/0
[Cs]
+1.8 +0.7 92 -0 -0 прохладно 1010.4 993.3
21 21.08 штиль 0 500 м туман 8/0
[Ci fib]
+2.9 +2.7 99 +2 +2 прохладно 1009.8 992.9 +0.2
00 22.08 штиль 0 50 км {туман} 10/0
[Cs]
+8.0 +3.8 75 +7 +12 по сезону 1008.8 992.2 +2.6
03 22.08 штиль 0 50 км 9/1 1000 м
[Sc Cs]
+14.7 +6.0 56 +15 +21 тепло 1006.9 990.7
06 22.08 СВ 2 50 км 10/3 1000 м
[Cb cap Cs]
+18.0 +7.3 50 +19 +21 тепло 1004.8 988.8
09 22.08 СВ 2 50 км 10/5 1000 м
[Cb cap Ac As]
+17.7 +9.5 59 +18 +18 тепло 1003.5 987.5 +18.6
12 22.08 СВ 1 50 км 10/3 1000 м
[Cb cap Ac As]
+14.1 +9.1 72 +15 +15 тепло 1003.2 987.0
15 22.08 С 2 20 км 10/3 1000 м
[Cb cap Ac As]
+12.8 +8.0 73 +12 +12 тепло 1001.9 985.6
18 22.08 ЮЗ 1 20 км в посл. час ливневой дождь 10/5 1000 м
[Cb cap Ac As]
+11.7 +10.2 91 +11 +11 тепло 1001.9 985.6
21 22.08 ЮВ 1 20 км слабый дождь {ливн. осадки} 10/0
[As op]
+11.5 +10.7 95 +11 +11 тепло 1002.2 985.9 +11.4 1
00 23.08 С 1 50 км в посл. час дождь 10/3 1000 м
[Cb cap Ac As]
+12.6 +12.0 96 +13 +14 тепло 1001.9 985.6
03 23.08 В 2 50 км 9/1 1000 м
[Sc Ac trans]
+15.4 +12.9 85 +15 +18 тепло 1000.7 984.6
06 23.08 Ю 4 50 км 9/4 1000 м
[Cb cap Ac trans]
+20.1 +10.0 52 +22 +22 комфорт 999.6 983.8
09 23.08 ЮЗ 1 50 км 10/4 1000 м
[Cb cap Ac trans]
+19.3 +11.4 60 +21 +22 комфорт 1000.0 984.1 +20.7 0.1
12 23.08 З 2 20 км слабый ливневой дождь 10/5 1000 м
[Cb cap Ac und]
+14.8 +12.6 87 +14 +14 тепло 1001.7 985.5
15 23.08 штиль 0 4000 м ливневой дождь 10/10 1020 м
[Cb cap]
+13.0 +12.8 99 +12 +12 тепло 1001.7 985.5
18 23.08 штиль 0 20 км {ливн. осадки} 9/8 1230 м
[Cb cap Ac trans]
+12.3 +12.3 100 +12 +12 тепло 1001.8 985.5
21 23.08 штиль 0 50 км 8/3 1000 м
[Sc Ac trans]
+10.9 +10.9 100 +10 +10 тепло 1002.0 985.6 +10.9 0.5
00 24.08 ЮЗ 3 50 км 6/3 1000 м
[Sc Ac trans]
+15.7 +11.1 74 +15 +17 тепло 1002.1 986.0 +10.7
03 24.08 З 1 50 км 9/4 1000 м
[Cb cap Ac trans]
+17.2 +10.7 66 +18 +20 тепло 1002.2 986.2

 

Местоположение метеостанции Верхоянск (Якутия, Россия): широта 67.57 долгота 133.40 высота над уровнем моря 136 м.

В архиве по умолчанию представлена погода в Верхоянске за последнюю неделю. Архивные данные за месяц целиком и за предыдущие месяцы, начиная с января 2011 года, Вы можете получить, выбрав интересующий диапазон дат из раскрывающегося списка и нажав кнопку "Ввод!".

Внимание! Время в таблицах - всемирное. Для получения местного времени необходимо прибавить поправку, которая в Верхоянске равна 10 ч.

Смотрите также архив погоды в соседних городах и на ближайших метеорологических станциях:

Погода в Батагае (Якутия, Россия) (52 км)
Погода в Екюччю (Якутия, Россия) (118 км)
Погода в Батагай-Алыте (Якутия, Россия) (129 км)
Погода в Усть-Чарках (Якутия, Россия) (162 км)
Погода в Иэме (Якутия, Россия) (274 км)
Погода в Усть-Куйге (Якутия, Россия) (284 км)
Погода в Себян-Кюеле (Якутия, Россия) (294 км)
Погода в Депутатском (Якутия, Россия) (329 км)
Погода в Юбилейной (Якутия, Россия) (373 км)
Погода в Джарджане (Якутия, Россия) (409 км)

Пояснения к столбцам:

Ветер - указаны скорость ветра в м/с - средняя за 10 мин, порывы в срок и между сроками (в фигурных скобках) и направление, откуда дует ветер: С - северный, СВ - северо-восточный, В - восточный, ЮВ - юго-восточный, Ю - южный, ЮЗ - юго-западный, З - западный, СЗ - северо-западный.
Видимость - горизонтальная дальность видимости в метрах или километрах. При видимости от 1 до 10 км при отсутствии осадков обычно наблюдается дымка, при ухудшении видимости до 1 км и менее - туман. В сухую погоду видимость может ухудшаться дымом, пылью или мглою.
Явления - указаны атмосферные явления, наблюдавшиеся в срок или в последний час перед сроком; фигурными скобками обозначены явления, наблюдавшиеся между сроками (за 1-3 часа до срока); квадратными скобками обозначены град или гололедные отложения с указанием их диаметра в мм.
Облачность - указаны через наклонную черту общая и нижняя облачность в баллах и высота нижней границы облаков в метрах; квадратными скобками обозначены формы облаков: Ci - перистые, Cs - перисто-слоистые, Cc - перисто-кучевые, Ac - высококучевые, As - высокослоистые, Sc - слоисто-кучевые, Ns - слоисто-дождевые, Cu - кучевые, Cb - кучево-дождевые. Подробнее классификацию облаков см. в Атласе облаков (PDF).
T - Температура воздуха - температура, измеренная на высоте 2 м над землей.
Td - Температура точки росы - температура, при понижении до которой содержащийся в воздухе водяной пар достигнет насыщения.
f - Относительная влажность воздуха - влажноcть воздуха, измеренная на высоте 2 м над землей.
Te - Эффективная температура - температура, которую ощущает одетый по сезону человек в тени. Характеристика душности погоды. При расчете учитывается влияние влажности воздуха и скорости ветра на теплоощущения человека.
Tes - Эффективная температура на солнце - температура, которую ощущает человек, с поправкой на солнечный нагрев. Характеристика знойности погоды. Зависит от высоты солнца над горизонтом, облачности и скорости ветра. Ночью, в пасмурную погоду, а также при ветре 12 м/с и более поправка равна нулю.
P - Атмосферное давление - приведенное к уровню моря атмосферное давление.
Po - Атмосферное давление - измеренное на уровне метеостанции атмосферное давление.
Tmin - Минимальная температура - минимум температуры воздуха на высоте 2 м над землей.
Tmax - Максимальная температура - максимум температуры воздуха на высоте 2 м над землей.
R - Количество осадков - Количество выпавших осадков за период времени, мм. При наведении курсора мыши на число - период времени, за который выпало указанное количество осадков.
R24 - Количество осадков - Количество выпавших осадков за 24 часа, мм.
S - Снежный покров - Высота снежного покрова, см. При наведении курсора мыши на число - состояние снежного покрова и степень покрытия местности в баллах.